Lexington Weather

Lexington, Massachusetts, USA

56°F
5/17/2024 10:49pm 
  • Lexington Conditions: Mostly cloudy
  • Temperature: 56.1°F / 13.4°CColder 1.3°F than last hour.
  • Dew Point: 50.4°FIncreased 0.2°Fsince last hour.
  • Relative Humidity: 81%Increased 4.0% since last hour.
  • Wind: Calm, 10-min avg: Calm, gust: None
  • Barometer: 29.96 in Steady
  • Visibility: 10 miles
  • Rain Today: 0.00 in
  •   

Regional Weather Roundup
for Boston, MA

        
000
ASUS41 KBOX 151810
RWRBOX

REGIONAL WEATHER ROUNDUP
NATIONAL WEATHER SERVICE BOSTON/NORTON MA
200 PM EDT WED MAY 15 2024

NOTE:  "FAIR" INDICATES FEW OR NO CLOUDS BELOW 12,000 FEET WITH NO 
SIGNIFICANT WEATHER AND/OR OBSTRUCTIONS TO VISIBILITY.

MAZALL-151900-
EASTERN MASSACHUSETTS
  
CITY           SKY/WX    TMP DP  RH WIND       PRES   REMARKS
BOSTON         LGT RAIN  64  61  90 S9        29.90R                  
6HR MIN TEMP:  63; 6HR MAX TEMP:  70; 6HR PCP:  0.05;                

BEVERLY        CLOUDY    66  55  67 SE9       29.88F                  
LAWRENCE       LGT RAIN  69  58  67 SW8       29.89F                  
BEDFORD        CLOUDY    70  55  59 SW15      29.87S                  
NORWOOD        LGT RAIN  67  58  72 SW12      29.90S                  
MARSHFIELD     CLOUDY    70  59  68 SW7       29.89F                  
PLYMOUTH       LGT RAIN  66  58  75 SW8       29.90F                  
TAUNTON        LGT RAIN  65  60  84 S3        29.90F                  
NEW BEDFORD    CLOUDY    64  62  93 CALM      29.90F                  
$$

MAZALL-151900-
CAPE COD AND THE ISLANDS
  
CITY           SKY/WX    TMP DP  RH WIND       PRES   REMARKS
FALMOUTH       PTSUNNY   66  64  94 NE9       29.82F                  
HYANNIS        CLOUDY    61  55  81 S5        29.90F                  
CHATHAM        CLOUDY    60  57  89 S3        29.92F                  
PROVINCETOWN   CLOUDY    68  60  75 S10       29.91F                  
NANTUCKET      CLOUDY    57  51  80 SE9       29.92F                  
MARTHAS VNYRD  LGT RAIN  61  59  93 S5        29.91F                  
$$
 
MAZALL-151900-
CENTRAL AND WESTERN MASSACHUSETTS
  
CITY           SKY/WX    TMP DP  RH WIND       PRES   REMARKS
WORCESTER      LGT RAIN  62  59  90 S7        29.91S                  
6HR MIN TEMP:  59; 6HR MAX TEMP:  69; 6HR PCP:  0.02;                

FITCHBURG      LGT RAIN  66  57  72 SW9       29.90R                  
ORANGE         CLOUDY    65  56  72 S8        29.90F                  
SPRINGFIELD    DRIZZLE   67  58  72 SE7       29.85S                  
WESTFIELD      LGT RAIN  66  59  78 SE7       29.88S                  
NORTH ADAMS    LGT RAIN  66  60  81 NE5       29.87F                  
PITTSFIELD     LGT RAIN  63  57  81 SE3       29.86F                  
$$
 
RIZALL-151900-
RHODE ISLAND
  
CITY           SKY/WX    TMP DP  RH WIND       PRES   REMARKS
PROVIDENCE     LGT RAIN  61  61 100 SE5       29.91F                  
6HR MIN TEMP:  59; 6HR MAX TEMP:  65; 6HR PCP:  0.18;                

NEWPORT        LGT RAIN  60  59  96 E3        29.90F                  
BLOCK ISLAND   LGT RAIN  54  54 100 E7        29.90F                  
SMITHFIELD     LGT RAIN  62  62 100 CALM      29.91F                  
WESTERLY       LGT RAIN  61  59  93 E6        29.89F                  
$$
 
CTZALL-151900-
CONNECTICUT
  
CITY           SKY/WX    TMP DP  RH WIND       PRES   REMARKS
BRADLEY INTL   LGT RAIN  68  59  73 S7        29.87F                  
6HR MIN TEMP:  63; 6HR MAX TEMP:  68; 6HR PCP: TRACE;                

HARTFORD       LGT RAIN  66  60  81 SE3       29.87F                  
PLAINVILLE     LGT RAIN  64  62  92 SE5       29.87F                  
BRIDGEPORT     LGT RAIN  59  58  96 E12       29.86F                  
DANBURY        CLOUDY    63  59  87 E7        29.86F                  
GROTON         LGT RAIN  62  61  96 E8        29.87F                  
NEW HAVEN      LGT RAIN  63  61  93 E6        29.86F                  
CHESTER        LGT RAIN  61  61 100 VRB6      29.87F                  
MERIDEN        LGT RAIN  64  59  83 VRB3      29.86F                  
WILLIMANTIC    LGT RAIN  63  60  90 CALM      29.89F                  
OXFORD         LGT RAIN  61  59  93 E7        29.88F                  
$$

MEZ002-015-021-024-NHZ003-005-008-011-012-014-VTZ005-008-151900-
NORTHERN NEW ENGLAND
  
CITY           SKY/WX    TMP DP  RH WIND       PRES   REMARKS
PORTLAND ME    CLOUDY    71  58  63 SW12G20   29.87F                  
6HR MIN TEMP:  55; 6HR MAX TEMP:  71;                                

BANGOR ME      PTSUNNY   76  56  49 SW7       29.83F                  
CONCORD NH     CLOUDY    69  54  58 W7        29.88F                  
MANCHESTER NH  CLOUDY    73  54  51 SW3       29.86F                  
NASHUA NH      CLOUDY    72  56  57 SW3       29.88S                  
PORTSMOUTH NH  CLOUDY    71  57  60 SE12      29.87S                  
JAFFREY NH     CLOUDY    67  54  63 S7        29.91S                  
KEENE NH       CLOUDY    65  56  72 S7        29.89F                  
BURLINGTON VT  CLOUDY    69  58  67 W7        29.85F                  
MT. WASHINGTON SHOWER    45  45 100 S7G17       N/A  VSB 1/16         
$$

NYZ052-076-151900-
EASTERN NEW YORK
  
CITY           SKY/WX    TMP DP  RH WIND       PRES   REMARKS
ALBANY         LGT RAIN  68  60  75 SE7       29.86F                  
6HR MIN TEMP:  62; 6HR MAX TEMP:  68; 6HR PCP:  0.07;                

NEW YORK CITY  CLOUDY    62  56  80 NE14      29.81F                  
6HR MIN TEMP:  59; 6HR MAX TEMP:  64; 6HR PCP:  0.03;                

$$
 
ANZALL-151900-
MARINE OBSERVATIONS
  
STATION/POSITION TIME  TEMP    WIND        PRES    VSBY  WAVE
                       AIR SEA DIR/SP/G                  HT/PER
                 (UTC) (F)     (DEG/KT/KT) (MB)    (MI)  (FT/S)
BOSTON BUOY      1750   58 53  170/ 12/ 14 1012.8F         2/ 7
BUZZARDS BAY     1700   54      80/  3/  4 1013.4F
NANTUCKET SOUND  1750   57 55   CALM  /  2 1012.9F         1
MASS BAY-STELLWA 1604   57 53  170/  8/ 10 1013.1R  1 7/8  2/ 8
ISLE OF SHOALS   1700   62     160/ 19/ 19 1011.5F
S OF BLOCK IS    1756      51                N/A           2/ 9
$$

......................KEY.........................
  SKY/WX - SKY CONDITION/PRESENT WEATHER
  TMP    - TEMPERATURE IN FAHRENHEIT
  DWPT   - DEWPOINT IN FAHRENHEIT
  RH     - RELATIVE HUMIDITY IN PERCENT
  WIND   - DIRECTION AND SPEED IN MPH
  PRES   - MEAN SEA LEVEL PRESSURE IN INCHES OF HG
  WCI    - WIND CHILL INDEX
  VSB    - VISIBILITY IN MILES
  HX     - HEAT INDEX
  TC     - TEMPERATURE IN CELSIUS
  VRB    - VARIABLE WIND DIRECTION
  N/A    - NOT AVAILABLE
  
      

Other recent Regional Weather Roundups

Fri May 17, 10:10pm EDT

Fri May 17, 9:10pm EDT

Fri May 17, 8:10pm EDT

Fri May 17, 7:10pm EDT

Fri May 17, 6:10pm EDT

Fri May 17, 5:10pm EDT

Fri May 17, 4:10pm EDT

Fri May 17, 3:10pm EDT

Fri May 17, 2:10pm EDT

Fri May 17, 1:10pm EDT

Fri May 17, 12:10pm EDT

Fri May 17, 11:10am EDT

Fri May 17, 10:10am EDT

Fri May 17, 9:10am EDT

Fri May 17, 8:10am EDT

Fri May 17, 7:10am EDT

Fri May 17, 6:10am EDT

Fri May 17, 5:10am EDT

Fri May 17, 4:10am EDT

Fri May 17, 3:10am EDT

Fri May 17, 2:10am EDT

Fri May 17, 1:10am EDT

Fri May 17, 12:10am EDT

Thu May 16, 11:10pm EDT

Thu May 16, 10:10pm EDT

Thu May 16, 9:10pm EDT

Thu May 16, 8:10pm EDT

Thu May 16, 7:10pm EDT

Thu May 16, 6:10pm EDT

Thu May 16, 5:10pm EDT

Thu May 16, 4:10pm EDT

Thu May 16, 3:10pm EDT

Thu May 16, 2:10pm EDT

Thu May 16, 1:10pm EDT

Thu May 16, 12:10pm EDT

Thu May 16, 11:10am EDT

Thu May 16, 10:10am EDT

Thu May 16, 9:10am EDT

Thu May 16, 8:10am EDT

Thu May 16, 7:10am EDT

Thu May 16, 6:10am EDT

Thu May 16, 5:10am EDT

Thu May 16, 4:10am EDT

Thu May 16, 3:10am EDT

Thu May 16, 2:10am EDT

Thu May 16, 1:10am EDT

Thu May 16, 12:10am EDT

Wed May 15, 11:10pm EDT

Wed May 15, 10:10pm EDT

Wed May 15, 9:10pm EDT

Wed May 15, 8:10pm EDT

Wed May 15, 7:10pm EDT

Wed May 15, 6:10pm EDT

Wed May 15, 5:10pm EDT

Wed May 15, 4:10pm EDT

Wed May 15, 3:10pm EDT

Wed May 15, 1:10pm EDT

Wed May 15, 12:10pm EDT

Wed May 15, 11:10am EDT

Wed May 15, 10:10am EDT

Wed May 15, 9:10am EDT

Wed May 15, 8:10am EDT

Wed May 15, 7:10am EDT

Wed May 15, 6:10am EDT

Wed May 15, 5:10am EDT

Wed May 15, 4:10am EDT

Wed May 15, 3:10am EDT

Wed May 15, 2:10am EDT

Wed May 15, 1:10am EDT

Wed May 15, 12:10am EDT

Tue May 14, 11:10pm EDT

Tue May 14, 10:10pm EDT

Tue May 14, 9:10pm EDT

Tue May 14, 8:10pm EDT

Tue May 14, 7:10pm EDT

Tue May 14, 6:10pm EDT

Tue May 14, 5:10pm EDT

Tue May 14, 4:10pm EDT

Tue May 14, 3:10pm EDT

Tue May 14, 2:10pm EDT

Tue May 14, 1:10pm EDT

Tue May 14, 12:10pm EDT

Tue May 14, 11:10am EDT

Tue May 14, 10:10am EDT

Tue May 14, 9:10am EDT

Tue May 14, 8:10am EDT

Tue May 14, 7:10am EDT

Tue May 14, 6:10am EDT

Tue May 14, 5:10am EDT

Tue May 14, 4:10am EDT

Tue May 14, 3:10am EDT

Tue May 14, 2:10am EDT

Tue May 14, 1:10am EDT

Tue May 14, 12:10am EDT

Mon May 13, 11:10pm EDT

Mon May 13, 10:10pm EDT

Mon May 13, 9:10pm EDT

Mon May 13, 8:10pm EDT

Mon May 13, 7:10pm EDT

Mon May 13, 6:10pm EDT

Mon May 13, 5:10pm EDT

Mon May 13, 4:10pm EDT

Mon May 13, 3:10pm EDT

Mon May 13, 2:10pm EDT

Mon May 13, 1:10pm EDT

Mon May 13, 12:10pm EDT

Mon May 13, 11:10am EDT

Mon May 13, 10:10am EDT

Mon May 13, 9:10am EDT

Mon May 13, 8:10am EDT

Mon May 13, 7:10am EDT

Mon May 13, 6:10am EDT

Mon May 13, 5:10am EDT

Mon May 13, 4:10am EDT

Mon May 13, 3:10am EDT

Mon May 13, 2:10am EDT

Mon May 13, 1:10am EDT

Mon May 13, 12:10am EDT

Sun May 12, 11:10pm EDT

Sun May 12, 10:10pm EDT

Sun May 12, 9:10pm EDT

Sun May 12, 8:10pm EDT

Sun May 12, 7:10pm EDT

Sun May 12, 6:10pm EDT

Sun May 12, 5:10pm EDT

Sun May 12, 4:10pm EDT

Sun May 12, 3:10pm EDT

Sun May 12, 2:10pm EDT

Sun May 12, 1:10pm EDT

Sun May 12, 12:10pm EDT

Sun May 12, 11:10am EDT

Sun May 12, 10:10am EDT

Sun May 12, 9:10am EDT

Sun May 12, 8:10am EDT

Sun May 12, 7:10am EDT

Sun May 12, 6:10am EDT

Sun May 12, 5:10am EDT

Sun May 12, 4:10am EDT

Sun May 12, 3:10am EDT

Sun May 12, 2:10am EDT

Sun May 12, 1:10am EDT

Sun May 12, 12:10am EDT

Sat May 11, 11:10pm EDT

Sat May 11, 10:10pm EDT

Sat May 11, 9:10pm EDT

Sat May 11, 8:10pm EDT

Sat May 11, 7:10pm EDT

Sat May 11, 6:10pm EDT

Sat May 11, 5:10pm EDT

Sat May 11, 4:10pm EDT

Sat May 11, 3:10pm EDT

Sat May 11, 2:10pm EDT

Sat May 11, 1:10pm EDT

Sat May 11, 12:10pm EDT

Sat May 11, 11:10am EDT

Sat May 11, 10:10am EDT

Sat May 11, 9:10am EDT

Sat May 11, 8:10am EDT

Sat May 11, 7:10am EDT

Sat May 11, 6:10am EDT

Sat May 11, 5:10am EDT

Sat May 11, 4:10am EDT

Sat May 11, 3:10am EDT

Sat May 11, 2:10am EDT

Sat May 11, 1:10am EDT

Sat May 11, 12:10am EDT

Fri May 10, 11:10pm EDT